Location: Newark
(40.3500°N, 15.2333°E)
Time: 15:59:19
(UTC+00:00)

Vanguard 1 - Pass Details

Date: 30 January 2020
Orbit: 650 x 3833 km, 34.2° (Epoch: 16 February)

Event Time Altitude Azimuth Distance (km) Brightness Sun altitude
Rises 16:58:00 0° 263° (W) 3,013 14.7 -8.7°
Reaches altitude 10° 17:00:24 10° 255° (WSW) 2,046 13.4 -9.1°
Maximum altitude 17:04:29 37° 187° (S) 1,048 10.4 -9.9°
Drops below altitude 10° 17:09:16 10° 119° (ESE) 2,414 11.7 -10.8°
Enters shadow 17:10:30 - 116° (ESE) 2,905 12.0 -11.0°
Sets 17:12:22 0° 112° (ESE) 3,651 - -11.3°
